| time (UTC) | temp F | wind direction | speed knots | gust knots | rain 1hr in | rain 24hr in | rain mn in | humidity % | barometer mb |
| 20260507023508 | 48 | 170 | 0.9 | 3.5 | 0.02 | 0.43 | 0.04 | 96 | 1008.2 |
| 20260507022507 | 48 | 167 | 0.9 | 2.6 | 0.01 | 0.42 | 0.04 | 96 | 1008.2 |
| 20260507021507 | 48 | 165 | 0.9 | 3.5 | 0.02 | 0.42 | 0.04 | 96 | 1008.1 |
| 20260507020503 | 48 | 151 | 0.9 | 3.5 | 0.01 | 0.41 | 0.03 | 96 | 1007.9 |
| 20260507015501 | 48 | 168 | 0.9 | 3.5 | 0.01 | 0.41 | 0.03 | 95 | 1007.9 |
| 20260507015000 | 48 | 167 | 0.9 | 3.5 | 0.01 | 0.41 | 0.03 | 95 | 1007.8 |
| 20260507014459 | 48 | 167 | 0.9 | 3.5 | 0.01 | 0.41 | 0.03 | 95 | 1007.8 |
| 20260507013958 | 48 | 174 | 0.9 | 1.7 | 0.00 | 0.41 | 0.03 | 95 | 1007.7 |
| 20260507013456 | 48 | 174 | 0.9 | 1.7 | 0.00 | 0.41 | 0.03 | 95 | 1007.7 |
| 20260507012955 | 48 | 214 | 0.9 | 2.6 | 0.00 | 0.41 | 0.03 | 96 | 1007.6 |
| 20260507012454 | 48 | 214 | 0.9 | 2.6 | 0.00 | 0.41 | 0.03 | 96 | 1007.6 |
| 20260507011953 | 48 | 197 | 0.9 | 2.6 | 0.00 | 0.41 | 0.02 | 96 | 1007.6 |
| 20260507011452 | 48 | 197 | 0.9 | 2.6 | 0.00 | 0.41 | 0.02 | 96 | 1007.6 |
| 20260507010951 | 48 | 192 | 0.9 | 3.5 | 0.00 | 0.41 | 0.02 | 96 | 1007.6 |
| 20260507010451 | 48 | 192 | 0.9 | 3.5 | 0.00 | 0.41 | 0.02 | 96 | 1007.6 |
| 20260507005950 | 48 | 193 | 0.9 | 2.6 | 0.00 | 0.41 | 0.02 | 96 | 1007.7 |
| 20260507005448 | 48 | 193 | 0.9 | 2.6 | 0.00 | 0.41 | 0.02 | 96 | 1007.7 |
| 20260507004947 | 48 | 205 | 1.7 | 3.5 | 0.00 | 0.41 | 0.02 | 96 | 1007.5 |
| 20260507004446 | 48 | 205 | 1.7 | 3.5 | 0.00 | 0.41 | 0.02 | 96 | 1007.5 |
| 20260507003945 | 48 | 216 | 1.7 | 3.5 | 0.00 | 0.41 | 0.02 | 96 | 1007.5 |
| 20260507003444 | 48 | 216 | 1.7 | 3.5 | 0.00 | 0.41 | 0.02 | 96 | 1007.5 |
| 20260507002943 | 48 | 221 | 1.7 | 4.3 | 0.00 | 0.41 | 0.02 | 96 | 1007.5 |
| 20260507002443 | 48 | 221 | 1.7 | 4.3 | 0.00 | 0.41 | 0.02 | 96 | 1007.5 |
| 20260507001941 | 48 | 203 | 1.7 | 2.6 | 0.01 | 0.41 | 0.02 | 96 | 1007.4 |
| 20260507001440 | 48 | 203 | 1.7 | 2.6 | 0.01 | 0.41 | 0.02 | 96 | 1007.4 |
| 20260507000939 | 48 | 203 | 1.7 | 3.5 | 0.01 | 0.41 | 0.02 | 96 | 1007.5 |
| 20260507000438 | 48 | 203 | 1.7 | 3.5 | 0.01 | 0.41 | 0.02 | 96 | 1007.5 |
| 20260506235938 | 48 | 190 | 1.7 | 3.5 | 0.01 | 0.41 | 0.02 | 96 | 1007.5 |
| 20260506235436 | 48 | 190 | 1.7 | 3.5 | 0.01 | 0.41 | 0.02 | 96 | 1007.5 |
| 20260506234935 | 48 | 200 | 3.5 | 4.3 | 0.01 | 0.40 | 0.02 | 95 | 1007.5 |
| 20260506234434 | 48 | 200 | 3.5 | 4.3 | 0.01 | 0.40 | 0.02 | 95 | 1007.5 |
| 20260506233933 | 48 | 207 | 4.3 | 6.1 | 0.01 | 0.40 | 0.02 | 95 | 1007.5 |
| 20260506233432 | 48 | 207 | 4.3 | 6.1 | 0.01 | 0.40 | 0.02 | 95 | 1007.5 |
| 20260506232932 | 48 | 200 | 4.3 | 6.1 | 0.01 | 0.40 | 0.02 | 95 | 1007.5 |
| 20260506232431 | 48 | 200 | 4.3 | 6.1 | 0.02 | 0.40 | 0.02 | 95 | 1007.5 |
| 20260506231930 | 48 | 195 | 3.5 | 6.1 | 0.01 | 0.40 | 0.02 | 95 | 1007.5 |
| 20260506231428 | 48 | 195 | 3.5 | 6.1 | 0.01 | 0.40 | 0.02 | 95 | 1007.5 |
| 20260506230927 | 48 | 201 | 4.3 | 7.8 | 0.01 | 0.40 | 0.02 | 95 | 1007.5 |
| 20260506230426 | 48 | 201 | 4.3 | 7.8 | 0.02 | 0.40 | 0.02 | 95 | 1007.5 |
| 20260506225925 | 49 | 222 | 7.0 | 10.4 | 0.01 | 0.39 | 0.01 | 95 | 1007.6 |
| 20260506225425 | 49 | 222 | 7.0 | 10.4 | 0.01 | 0.39 | 0.01 | 95 | 1007.6 |
| 20260506224924 | 49 | 270 | 1.7 | 12.2 | 0.01 | 0.39 | 0.01 | 95 | 1007.6 |
| 20260506224423 | 49 | 270 | 1.7 | 12.2 | 0.02 | 0.39 | 0.01 | 95 | 1007.6 |
| 20260506223922 | 49 | 302 | 0.9 | 1.7 | 0.02 | 0.39 | 0.01 | 94 | 1007.6 |
| 20260506223421 | 49 | 106 | 0.9 | 2.6 | 0.02 | 0.39 | 0.01 | 94 | 1007.6 |
| 20260506222919 | 49 | 106 | 0.9 | 2.6 | 0.02 | 0.39 | 0.01 | 94 | 1007.6 |
| 20260506222418 | 49 | 67 | 1.7 | 3.5 | 0.02 | 0.39 | 0.00 | 94 | 1007.6 |
| 20260506221917 | 49 | 67 | 1.7 | 3.5 | 0.02 | 0.39 | 0.00 | 94 | 1007.6 |
| 20260506221417 | 49 | 75 | 1.7 | 3.5 | 0.02 | 0.39 | 0.00 | 94 | 1007.5 |
| 20260506220916 | 49 | 75 | 1.7 | 3.5 | 0.02 | 0.39 | 0.00 | 94 | 1007.5 |
| 20260506220415 | 49 | 90 | 0.9 | 3.5 | 0.02 | 0.38 | 0.00 | 94 | 1007.4 |
| 20260506215915 | 49 | 90 | 0.9 | 3.5 | 0.02 | 0.38 | 0.38 | 94 | 1007.4 |
| 20260506215413 | 49 | 135 | 1.7 | 5.2 | 0.02 | 0.38 | 0.38 | 94 | 1007.3 |
| 20260506214912 | 49 | 135 | 1.7 | 5.2 | 0.02 | 0.38 | 0.38 | 94 | 1007.3 |
| 20260506214411 | 49 | 159 | 0.9 | 3.5 | 0.02 | 0.38 | 0.38 | 94 | 1007.3 |
| 20260506213910 | 49 | 159 | 0.9 | 3.5 | 0.02 | 0.38 | 0.38 | 94 | 1007.3 |
| 20260506213410 | 49 | 174 | 0.9 | 3.5 | 0.01 | 0.37 | 0.37 | 94 | 1007.2 |
| 20260506212907 | 49 | 174 | 0.9 | 3.5 | 0.01 | 0.37 | 0.37 | 94 | 1007.2 |
| 20260506212406 | 50 | 180 | 0.9 | 2.6 | 0.01 | 0.37 | 0.37 | 94 | 1007.1 |
| 20260506211906 | 50 | 180 | 0.9 | 2.6 | 0.01 | 0.37 | 0.37 | 94 | 1007.1 |
| 20260506211405 | 50 | 180 | 0.9 | 3.5 | 0.01 | 0.37 | 0.37 | 94 | 1007.1 |
| 20260506210904 | 50 | 180 | 0.9 | 3.5 | 0.01 | 0.37 | 0.37 | 94 | 1007.1 |
| 20260506210402 | 50 | 186 | 0.9 | 1.7 | 0.01 | 0.37 | 0.37 | 93 | 1007.1 |
| 20260506205901 | 50 | 186 | 0.9 | 1.7 | 0.01 | 0.37 | 0.37 | 93 | 1007.1 |
| 20260506205400 | 50 | 177 | 0.9 | 2.6 | 0.00 | 0.37 | 0.36 | 93 | 1007.1 |
| 20260506204900 | 50 | 177 | 0.9 | 2.6 | 0.00 | 0.37 | 0.36 | 93 | 1007.1 |
| 20260506204359 | 50 | 173 | 0.9 | 2.6 | 0.00 | 0.36 | 0.36 | 93 | 1007.0 |
| 20260506203858 | 50 | 173 | 0.9 | 2.6 | 0.00 | 0.36 | 0.36 | 93 | 1007.0 |
| 20260506203357 | 50 | 163 | 0.9 | 1.7 | 0.00 | 0.36 | 0.36 | 94 | 1007.0 |
| 20260506202856 | 50 | 163 | 0.9 | 1.7 | 0.00 | 0.36 | 0.36 | 94 | 1007.0 |
| 20260506202354 | 50 | 183 | 0.9 | 2.6 | 0.00 | 0.36 | 0.36 | 94 | 1006.9 |
| 20260506201854 | 50 | 183 | 0.9 | 2.6 | 0.00 | 0.36 | 0.36 | 94 | 1006.9 |
| 20260506201353 | 50 | 183 | 0.9 | 2.6 | 0.00 | 0.36 | 0.36 | 94 | 1006.9 |
| 20260506200852 | 50 | 164 | 0.9 | 1.7 | 0.00 | 0.36 | 0.36 | 94 | 1006.8 |
| 20260506200351 | 50 | 164 | 0.9 | 1.7 | 0.00 | 0.36 | 0.36 | 94 | 1006.8 |
| 20260506195850 | 50 | 135 | 0.9 | 1.7 | 0.00 | 0.36 | 0.36 | 94 | 1006.7 |
| 20260506195350 | 50 | 135 | 0.9 | 1.7 | 0.00 | 0.36 | 0.36 | 94 | 1006.7 |
| 20260506194848 | 50 | 216 | 0.9 | 1.7 | 0.00 | 0.36 | 0.36 | 94 | 1006.5 |
| 20260506194348 | 50 | 216 | 0.9 | 1.7 | 0.00 | 0.36 | 0.36 | 94 | 1006.5 |
| 20260506193846 | 50 | 90 | 0.9 | 0.9 | 0.00 | 0.36 | 0.36 | 93 | 1006.4 |
| 20260506193345 | 50 | 90 | 0.9 | 0.9 | 0.00 | 0.36 | 0.36 | 93 | 1006.4 |
| 20260506192844 | 50 | 173 | 0.9 | 1.7 | 0.00 | 0.36 | 0.36 | 93 | 1006.3 |
| 20260506192343 | 50 | 173 | 0.9 | 1.7 | 0.00 | 0.36 | 0.36 | 93 | 1006.3 |
| 20260506191842 | 50 | 173 | 0.9 | 2.6 | 0.00 | 0.36 | 0.36 | 93 | 1006.2 |
| 20260506191340 | 50 | 173 | 0.9 | 2.6 | 0.00 | 0.36 | 0.36 | 93 | 1006.2 |
| 20260506190840 | 50 | 330 | 0.9 | 1.7 | 0.01 | 0.36 | 0.36 | 93 | 1006.0 |
| 20260506190338 | 50 | 330 | 0.9 | 1.7 | 0.01 | 0.36 | 0.36 | 93 | 1006.0 |
| 20260506185838 | 51 | 315 | 0.9 | 1.7 | 0.02 | 0.36 | 0.36 | 93 | 1005.9 |
| 20260506185337 | 51 | 315 | 0.9 | 1.7 | 0.02 | 0.36 | 0.36 | 93 | 1005.9 |
| 20260506184836 | 51 | 154 | 0.9 | 2.6 | 0.02 | 0.36 | 0.36 | 92 | 1005.8 |
| 20260506184334 | 51 | 154 | 0.9 | 2.6 | 0.02 | 0.36 | 0.36 | 92 | 1005.8 |
| 20260506183833 | 51 | 180 | 0.9 | 2.6 | 0.02 | 0.36 | 0.36 | 92 | 1005.6 |
| 20260506183332 | 51 | 180 | 0.9 | 2.6 | 0.02 | 0.36 | 0.36 | 92 | 1005.6 |
| 20260506182832 | 51 | 180 | 1.7 | 3.5 | 0.02 | 0.36 | 0.36 | 92 | 1005.7 |
| 20260506182331 | 51 | 180 | 1.7 | 3.5 | 0.02 | 0.37 | 0.36 | 92 | 1005.7 |
| 20260506181830 | 51 | 205 | 1.7 | 3.5 | 0.02 | 0.36 | 0.35 | 92 | 1005.6 |
| 20260506181329 | 51 | 205 | 1.7 | 3.5 | 0.02 | 0.37 | 0.35 | 92 | 1005.6 |
| 20260506180828 | 52 | 198 | 1.7 | 3.5 | 0.03 | 0.36 | 0.35 | 93 | 1005.6 |
| 20260506180327 | 52 | 198 | 1.7 | 3.5 | 0.03 | 0.37 | 0.35 | 93 | 1005.6 |
| 20260506175826 | 52 | 164 | 0.9 | 1.7 | 0.03 | 0.36 | 0.34 | 93 | 1005.4 |
| 20260506175324 | 52 | 164 | 0.9 | 1.7 | 0.03 | 0.36 | 0.34 | 93 | 1005.4 |
| 20260506174823 | 52 | 195 | 0.9 | 3.5 | 0.04 | 0.35 | 0.34 | 93 | 1005.3 |
| 20260506174322 | 52 | 195 | 0.9 | 3.5 | 0.04 | 0.36 | 0.34 | 93 | 1005.3 |
| 20260506173822 | 52 | 198 | 0.9 | 1.7 | 0.04 | 0.35 | 0.33 | 92 | 1005.3 |
| 20260506173320 | 52 | 198 | 0.9 | 1.7 | 0.04 | 0.37 | 0.33 | 92 | 1005.3 |
| 20260506172820 | 52 | 203 | 0.9 | 3.5 | 0.05 | 0.37 | 0.33 | 92 | 1005.3 |
| 20260506172318 | 52 | 203 | 0.9 | 3.5 | 0.05 | 0.37 | 0.33 | 92 | 1005.3 |
| 20260506171818 | 52 | 187 | 0.9 | 2.6 | 0.05 | 0.37 | 0.33 | 92 | 1005.2 |
| 20260506171317 | 52 | 187 | 0.9 | 2.6 | 0.05 | 0.37 | 0.33 | 92 | 1005.2 |
| 20260506170816 | 52 | 190 | 0.9 | 3.5 | 0.05 | 0.36 | 0.32 | 91 | 1005.2 |
| 20260506170314 | 52 | 190 | 0.9 | 3.5 | 0.05 | 0.38 | 0.32 | 91 | 1005.2 |
| 20260506165813 | 53 | 168 | 0.9 | 3.5 | 0.04 | 0.37 | 0.31 | 92 | 1005.2 |
| 20260506165312 | 53 | 168 | 0.9 | 3.5 | 0.04 | 0.38 | 0.31 | 92 | 1005.2 |
| 20260506164811 | 53 | 175 | 0.9 | 3.5 | 0.03 | 0.37 | 0.30 | 91 | 1005.3 |
| 20260506164310 | 53 | 175 | 0.9 | 3.5 | 0.03 | 0.37 | 0.30 | 91 | 1005.3 |
| 20260506163810 | 53 | 90 | 0.9 | 2.6 | 0.03 | 0.37 | 0.30 | 91 | 1005.1 |
| 20260506163309 | 53 | 90 | 0.9 | 2.6 | 0.03 | 0.37 | 0.30 | 91 | 1005.1 |
| 20260506162809 | 54 | 119 | 0.9 | 1.7 | 0.02 | 0.36 | 0.29 | 91 | 1005.0 |
| 20260506162407 | 54 | 119 | 0.9 | 1.7 | 0.02 | 0.36 | 0.29 | 91 | 1005.0 |
| 20260506161906 | 54 | 149 | 0.9 | 2.6 | 0.04 | 0.35 | 0.28 | 91 | 1004.9 |
| 20260506161304 | 54 | 149 | 0.9 | 2.6 | 0.04 | 0.35 | 0.28 | 91 | 1004.9 |
| 20260506160804 | 54 | 181 | 1.7 | 4.3 | 0.04 | 0.34 | 0.27 | 91 | 1004.8 |
| 20260506160302 | 54 | 181 | 1.7 | 4.3 | 0.04 | 0.34 | 0.27 | 91 | 1004.8 |
| 20260506155802 | 54 | 180 | 0.9 | 3.5 | 0.07 | 0.34 | 0.27 | 90 | 1004.7 |
| 20260506155301 | 54 | 180 | 0.9 | 3.5 | 0.07 | 0.34 | 0.27 | 90 | 1004.7 |
| 20260506154800 | 55 | 184 | 1.7 | 3.5 | 0.10 | 0.34 | 0.27 | 90 | 1004.6 |
| 20260506154258 | 55 | 184 | 1.7 | 3.5 | 0.10 | 0.34 | 0.27 | 90 | 1004.6 |
| 20260506153757 | 55 | 200 | 1.7 | 4.3 | 0.14 | 0.34 | 0.27 | 91 | 1004.6 |
| 20260506153256 | 55 | 200 | 1.7 | 4.3 | 0.14 | 0.34 | 0.27 | 91 | 1004.6 |
| 20260506152755 | 55 | 171 | 0.9 | 2.6 | 0.15 | 0.34 | 0.27 | 92 | 1004.6 |
| 20260506152254 | 55 | 171 | 0.9 | 2.6 | 0.15 | 0.34 | 0.27 | 92 | 1004.6 |
| 20260506151754 | 55 | 215 | 0.9 | 1.7 | 0.12 | 0.31 | 0.23 | 91 | 1004.5 |
| 20260506151253 | 55 | 215 | 0.9 | 1.7 | 0.12 | 0.31 | 0.23 | 91 | 1004.5 |
| 20260506150752 | 56 | 135 | 0.9 | 1.7 | 0.12 | 0.30 | 0.23 | 91 | 1004.5 |
| 20260506150251 | 56 | 135 | 0.9 | 1.7 | 0.12 | 0.30 | 0.23 | 91 | 1004.5 |
| 20260506145749 | 56 | 225 | 0.9 | 1.7 | 0.11 | 0.27 | 0.20 | 90 | 1004.4 |
| 20260506145248 | 56 | 225 | 0.9 | 1.7 | 0.11 | 0.27 | 0.20 | 90 | 1004.4 |
| 20260506144747 | 56 | 135 | 0.9 | 1.7 | 0.08 | 0.24 | 0.17 | 90 | 1004.3 |
| 20260506144247 | 56 | 135 | 0.9 | 1.7 | 0.08 | 0.24 | 0.17 | 90 | 1004.3 |
| 20260506143746 | 56 | 195 | 0.9 | 2.6 | 0.06 | 0.21 | 0.14 | 89 | 1004.3 |
| 20260506143245 | 56 | 195 | 0.9 | 2.6 | 0.06 | 0.21 | 0.14 | 89 | 1004.3 |
| 20260506142744 | 56 | 194 | 0.9 | 1.7 | 0.07 | 0.19 | 0.12 | 90 | 1004.2 |
| 20260506142242 | 56 | 194 | 0.9 | 1.7 | 0.07 | 0.19 | 0.12 | 90 | 1004.2 |
| 20260506141741 | 56 | 173 | 0.9 | 1.7 | 0.08 | 0.19 | 0.12 | 89 | 1004.1 |
| 20260506141240 | 56 | 173 | 0.9 | 1.7 | 0.08 | 0.19 | 0.12 | 89 | 1004.1 |
| 20260506140739 | 56 | 200 | 0.9 | 2.6 | 0.06 | 0.18 | 0.10 | 88 | 1004.1 |
| 20260506140238 | 56 | 200 | 0.9 | 2.6 | 0.06 | 0.18 | 0.10 | 88 | 1004.1 |
| 20260506135738 | 56 | 205 | 0.9 | 2.6 | 0.05 | 0.17 | 0.09 | 88 | 1004.1 |
| 20260506135236 | 56 | 205 | 0.9 | 2.6 | 0.05 | 0.17 | 0.09 | 88 | 1004.1 |
| 20260506134736 | 56 | 200 | 0.9 | 1.7 | 0.05 | 0.17 | 0.09 | 88 | 1004.0 |
| 20260506134235 | 56 | 200 | 0.9 | 1.7 | 0.05 | 0.17 | 0.09 | 88 | 1004.0 |
| 20260506133733 | 56 | 161 | 0.9 | 1.7 | 0.04 | 0.16 | 0.08 | 86 | 1003.9 |
| 20260506133233 | 56 | 161 | 0.9 | 1.7 | 0.04 | 0.16 | 0.08 | 86 | 1003.9 |
| 20260506132731 | 56 | 198 | 0.9 | 3.5 | 0.01 | 0.14 | 0.05 | 85 | 1003.8 |
| 20260506132232 | 56 | 198 | 0.9 | 3.5 | 0.01 | 0.14 | 0.05 | 85 | 1003.8 |
| 20260506131729 | 57 | 221 | 0.9 | 3.5 | 0.00 | 0.13 | 0.04 | 84 | 1003.7 |
| 20260506131229 | 57 | 221 | 0.9 | 3.5 | 0.00 | 0.13 | 0.04 | 84 | 1003.7 |
| 20260506130728 | 57 | 201 | 0.9 | 2.6 | 0.01 | 0.13 | 0.04 | 85 | 1003.4 |
| 20260506130227 | 57 | 201 | 0.9 | 2.6 | 0.01 | 0.13 | 0.04 | 85 | 1003.4 |
| 20260506125726 | 57 | 195 | 0.9 | 2.6 | 0.03 | 0.13 | 0.04 | 84 | 1003.3 |
| 20260506125224 | 57 | 195 | 0.9 | 2.6 | 0.03 | 0.13 | 0.04 | 84 | 1003.3 |
| 20260506124735 | 57 | 191 | 0.9 | 1.7 | 0.03 | 0.13 | 0.04 | 83 | 1003.2 |
| 20260506124223 | 57 | 191 | 0.9 | 1.7 | 0.04 | 0.14 | 0.04 | 83 | 1003.2 |
| 20260506123722 | 58 | 180 | 0.9 | 2.6 | 0.04 | 0.14 | 0.04 | 83 | 1003.3 |
| 20260506123222 | 58 | 180 | 0.9 | 2.6 | 0.04 | 0.15 | 0.04 | 83 | 1003.3 |
| 20260506122720 | 58 | 206 | 0.9 | 3.5 | 0.04 | 0.15 | 0.04 | 82 | 1003.3 |
| 20260506122218 | 58 | 206 | 0.9 | 3.5 | 0.04 | 0.16 | 0.04 | 82 | 1003.3 |
| 20260506121717 | 58 | 8 | 0.9 | 1.7 | 0.04 | 0.15 | 0.04 | 82 | 1003.2 |
| 20260506121217 | 58 | 8 | 0.9 | 1.7 | 0.04 | 0.16 | 0.04 | 82 | 1003.2 |
| 20260506120716 | 59 | 139 | 0.9 | 3.5 | 0.03 | 0.16 | 0.03 | 79 | 1003.3 |
| 20260506120215 | 59 | 139 | 0.9 | 3.5 | 0.03 | 0.19 | 0.03 | 79 | 1003.3 |
| 20260506115713 | 60 | 217 | 0.9 | 1.7 | 0.01 | 0.17 | 0.01 | 78 | 1003.4 |
| 20260506115214 | 60 | 217 | 0.9 | 1.7 | 0.01 | 0.20 | 0.01 | 78 | 1003.4 |
| 20260506114712 | 60 | 209 | 0.9 | 1.7 | 0.01 | 0.20 | 0.01 | 78 | 1003.3 |
| 20260506114211 | 61 | 198 | 0.9 | 2.6 | 0.00 | 0.21 | 0.00 | 76 | 1003.3 |
| 20260506113710 | 61 | 198 | 0.9 | 2.6 | 0.00 | 0.21 | 0.00 | 76 | 1003.3 |
| 20260506113209 | 62 | 90 | 0.9 | 1.7 | 0.00 | 0.21 | 0.00 | 72 | 1003.3 |
| 20260506112707 | 62 | 90 | 0.9 | 1.7 | 0.00 | 0.21 | 0.00 | 72 | 1003.3 |
| 20260506112207 | 62 | 45 | 0.9 | 1.7 | 0.00 | 0.20 | 0.00 | 72 | 1003.3 |
| 20260506111706 | 62 | 45 | 0.9 | 1.7 | 0.00 | 0.20 | 0.00 | 72 | 1003.3 |
| 20260506111205 | 63 | 50 | 0.9 | 1.7 | 0.00 | 0.20 | 0.00 | 70 | 1003.3 |
| 20260506110704 | 63 | 50 | 0.9 | 1.7 | 0.00 | 0.20 | 0.00 | 70 | 1003.3 |
| 20260506110202 | 63 | 38 | 0.9 | 2.6 | 0.00 | 0.20 | 0.00 | 69 | 1003.2 |
| 20260506105701 | 63 | 38 | 0.9 | 2.6 | 0.00 | 0.20 | 0.00 | 69 | 1003.2 |
| 20260506105201 | 63 | 336 | 1.7 | 7.8 | 0.00 | 0.20 | 0.00 | 67 | 1003.3 |
| 20260506104700 | 63 | 336 | 1.7 | 7.8 | 0.00 | 0.20 | 0.00 | 67 | 1003.3 |
| 20260506104159 | 64 | 322 | 0.9 | 4.3 | 0.00 | 0.20 | 0.00 | 67 | 1003.4 |
| 20260506103658 | 64 | 322 | 0.9 | 4.3 | 0.00 | 0.20 | 0.00 | 67 | 1003.4 |
| 20260506103156 | 64 | 320 | 0.9 | 4.3 | 0.00 | 0.20 | 0.00 | 67 | 1003.5 |
| 20260506102655 | 64 | 320 | 0.9 | 4.3 | 0.00 | 0.20 | 0.00 | 67 | 1003.5 |
| 20260506102156 | 64 | 22 | 0.9 | 3.5 | 0.00 | 0.20 | 0.00 | 72 | 1003.7 |
| 20260506101653 | 64 | 22 | 0.9 | 3.5 | 0.00 | 0.20 | 0.00 | 72 | 1003.7 |
| 20260506101152 | 64 | 352 | 0.9 | 3.5 | 0.00 | 0.20 | 0.00 | 72 | 1003.8 |
| 20260506100651 | 64 | 352 | 0.9 | 3.5 | 0.00 | 0.20 | 0.00 | 72 | 1003.8 |
| 20260506100151 | 64 | 61 | 0.9 | 1.7 | 0.00 | 0.20 | 0.00 | 75 | 1003.8 |
| 20260506095650 | 64 | 61 | 0.9 | 1.7 | 0.00 | 0.20 | 0.00 | 75 | 1003.8 |
| 20260506095148 | 62 | 338 | 0.9 | 3.5 | 0.00 | 0.20 | 0.00 | 76 | 1003.8 |
| 20260506094648 | 62 | 338 | 0.9 | 3.5 | 0.00 | 0.20 | 0.00 | 76 | 1003.8 |
| 20260506094147 | 62 | 308 | 1.7 | 5.2 | 0.00 | 0.20 | 0.00 | 75 | 1003.8 |
| 20260506093646 | 62 | 308 | 1.7 | 5.2 | 0.00 | 0.20 | 0.00 | 75 | 1003.8 |
| 20260506093145 | 62 | 90 | 0.9 | 2.6 | 0.00 | 0.20 | 0.00 | 77 | 1003.8 |
| 20260506092644 | 62 | 90 | 0.9 | 2.6 | 0.00 | 0.20 | 0.00 | 77 | 1003.8 |
| 20260506092143 | 61 | 57 | 0.9 | 1.7 | 0.00 | 0.20 | 0.00 | 79 | 1003.8 |
| 20260506091642 | 61 | 57 | 0.9 | 1.7 | 0.00 | 0.20 | 0.00 | 79 | 1003.8 |
| 20260506091141 | 61 | 336 | 0.9 | 2.6 | 0.00 | 0.20 | 0.00 | 77 | 1003.8 |
| 20260506090641 | 61 | 336 | 0.9 | 2.6 | 0.00 | 0.20 | 0.00 | 77 | 1003.8 |
| 20260506090139 | 61 | 8 | 0.9 | 3.5 | 0.00 | 0.20 | 0.00 | 80 | 1003.7 |
| 20260506085637 | 61 | 8 | 0.9 | 3.5 | 0.00 | 0.20 | 0.00 | 80 | 1003.7 |
| 20260506085136 | 61 | 12 | 0.9 | 3.5 | 0.00 | 0.20 | 0.00 | 82 | 1003.7 |
| 20260506084636 | 61 | 12 | 0.9 | 3.5 | 0.00 | 0.20 | 0.00 | 82 | 1003.7 |
| 20260506084135 | 60 | 90 | 0.9 | 1.7 | 0.00 | 0.20 | 0.00 | 85 | 1003.7 |
| 20260506083634 | 60 | 90 | 0.9 | 1.7 | 0.00 | 0.20 | 0.00 | 85 | 1003.7 |
| 20260506083133 | 59 | 311 | 0.9 | 3.5 | 0.00 | 0.20 | 0.00 | 87 | 1003.8 |
| 20260506082632 | 59 | 311 | 0.9 | 3.5 | 0.00 | 0.20 | 0.00 | 87 | 1003.8 |
| 20260506082131 | 58 | 345 | 0.9 | 3.5 | 0.00 | 0.20 | 0.00 | 91 | 1003.8 |
| 20260506081630 | 58 | 345 | 0.9 | 3.5 | 0.00 | 0.20 | 0.00 | 91 | 1003.8 |
| 20260506081139 | 57 | 349 | 1.7 | 3.5 | 0.00 | 0.20 | 0.00 | 92 | 1003.9 |
| 20260506080628 | 57 | 349 | 1.7 | 3.5 | 0.00 | 0.20 | 0.00 | 92 | 1003.9 |
| 20260506080127 | 56 | 344 | 0.9 | 2.6 | 0.00 | 0.20 | 0.00 | 92 | 1003.9 |
| 20260506073120 | 54 | 351 | 0.9 | 2.6 | 0.00 | 0.20 | 0.00 | 94 | 1003.8 |
| 20260506072620 | 54 | 351 | 0.9 | 2.6 | 0.00 | 0.20 | 0.00 | 94 | 1003.8 |
| 20260506072118 | 53 | 30 | 0.9 | 2.6 | 0.00 | 0.20 | 0.00 | 97 | 1003.8 |
| 20260506071618 | 53 | 30 | 0.9 | 2.6 | 0.00 | 0.20 | 0.00 | 97 | 1003.8 |
| 20260506071117 | 52 | 45 | 0.9 | 1.7 | 0.00 | 0.20 | 0.00 | 97 | 1003.8 |
| 20260506070616 | 52 | 45 | 0.9 | 1.7 | 0.00 | 0.20 | 0.00 | 97 | 1003.8 |
| 20260506070115 | 51 | 40 | 0.9 | 1.7 | 0.00 | 0.20 | 0.00 | 97 | 1003.8 |
| 20260506062107 | 48 | 36 | 0.9 | 1.7 | 0.00 | 0.20 | 0.00 | 97 | 1003.9 |
| 20260506061606 | 48 | 36 | 0.9 | 1.7 | 0.00 | 0.20 | 0.00 | 97 | 1003.9 |
| 20260506061104 | 48 | 16 | 0.9 | 1.7 | 0.00 | 0.20 | 0.00 | 97 | 1004.0 |
| 20260506060603 | 48 | 16 | 0.9 | 1.7 | 0.00 | 0.20 | 0.00 | 97 | 1004.0 |
| 20260506051053 | 46 | 24 | 0.9 | 3.5 | 0.00 | 0.20 | 0.00 | 97 | 1004.2 |
| 20260506050552 | 46 | 24 | 0.9 | 3.5 | 0.00 | 0.20 | 0.00 | 97 | 1004.2 |
| 20260506045049 | 46 | 45 | 0.9 | 1.7 | 0.00 | 0.20 | 0.00 | 97 | 1004.3 |
| 20260506044549 | 46 | 45 | 0.9 | 1.7 | 0.00 | 0.20 | 0.00 | 97 | 1004.3 |
| 20260506044047 | 46 | 36 | 0.9 | 1.7 | 0.00 | 0.20 | 0.00 | 96 | 1004.1 |
| 20260506043546 | 46 | 36 | 0.9 | 1.7 | 0.00 | 0.20 | 0.00 | 96 | 1004.1 |
| 20260506043044 | 46 | 45 | 0.9 | 2.6 | 0.00 | 0.20 | 0.00 | 96 | 1004.2 |
| 20260506042544 | 46 | 45 | 0.9 | 2.6 | 0.00 | 0.20 | 0.00 | 96 | 1004.2 |
| 20260506042043 | 46 | 45 | 0.9 | 2.6 | 0.00 | 0.20 | 0.00 | 96 | 1004.2 |
| 20260506041542 | 46 | 45 | 0.9 | 2.6 | 0.00 | 0.20 | 0.00 | 96 | 1004.2 |
| 20260506041041 | 46 | 33 | 0.9 | 1.7 | 0.00 | 0.20 | 0.00 | 96 | 1004.1 |
| 20260506040540 | 46 | 33 | 0.9 | 1.7 | 0.00 | 0.20 | 0.00 | 96 | 1004.1 |
| 20260506040039 | 46 | 45 | 0.9 | 1.7 | 0.00 | 0.20 | 0.00 | 96 | 1004.1 |
| 20260506035538 | 46 | 45 | 0.9 | 1.7 | 0.00 | 0.20 | 0.00 | 96 | 1004.1 |
| 20260506035037 | 46 | 12 | 0.9 | 2.6 | 0.00 | 0.20 | 0.00 | 96 | 1004.4 |
| 20260506034536 | 46 | 12 | 0.9 | 2.6 | 0.00 | 0.20 | 0.00 | 96 | 1004.4 |
| 20260506034035 | 46 | 40 | 0.9 | 1.7 | 0.00 | 0.20 | 0.00 | 97 | 1004.5 |
| 20260506033534 | 46 | 40 | 0.9 | 1.7 | 0.00 | 0.20 | 0.00 | 97 | 1004.5 |
| 20260506033032 | 46 | 24 | 0.9 | 1.7 | 0.00 | 0.20 | 0.00 | 97 | 1004.6 |
| 20260506032531 | 46 | 24 | 0.9 | 1.7 | 0.00 | 0.20 | 0.00 | 97 | 1004.6 |
| 20260506032031 | 46 | 45 | 0.9 | 1.7 | 0.00 | 0.20 | 0.00 | 96 | 1004.7 |
| 20260506031530 | 46 | 45 | 0.9 | 1.7 | 0.00 | 0.20 | 0.00 | 96 | 1004.7 |
| 20260506031029 | 46 | 24 | 0.9 | 1.7 | 0.00 | 0.20 | 0.00 | 96 | 1004.7 |
| 20260506030528 | 46 | 24 | 0.9 | 1.7 | 0.00 | 0.20 | 0.00 | 96 | 1004.7 |
| 20260506030027 | 46 | 45 | 0.9 | 0.9 | 0.00 | 0.20 | 0.00 | 96 | 1004.7 |
| 20260506025526 | 46 | 45 | 0.9 | 0.9 | 0.00 | 0.20 | 0.00 | 96 | 1004.7 |
| 20260506025025 | 46 | 53 | 0.9 | 1.7 | 0.00 | 0.20 | 0.00 | 96 | 1004.6 |
| 20260506024523 | 46 | 53 | 0.9 | 1.7 | 0.00 | 0.20 | 0.00 | 96 | 1004.6 |
| 20260506024023 | 46 | 59 | 0.9 | 1.7 | 0.00 | 0.20 | 0.00 | 95 | 1004.6 |
| 20260506023522 | 46 | 59 | 0.9 | 1.7 | 0.00 | 0.20 | 0.00 | 95 | 1004.6 |